STARLINK-2515, 48323

Orbit data source: Space-Track

STARLINK-2515, 48323 is a payload satellite owned by SpaceX/Seattle (US) in LEO that was launched on Thu, 29 Apr 2021 UTC via an FALCON 9 launch vehicle from the Air Force Eastern Test Range (AFETR). Payload-class satellites include a variety of spacecraft equipped with specific instruments for various scientific and technological missions. These include communications satellites like Starlink; space stations such as the ISS; scientific satellites like the Hubble; Earth observation satellites from companies like Planet Labs, Umbra, and HawkEye 360; GPS; miniature CubeSats for education and research; and military/defense satellites.

Loading next visibility...
Identifier
48323, 2021-036AZ
Orbit
LEO
Country
Flag of USUS
Related business
Manufacturer
SpaceX/Seattle
Mission
Operational Commercial Communications
Bus & Motor
STARLINK, Unknown motor
Mass
260 kg wet, ~248 kg dry
Launch date (UTC)
2021-04-29 (5 years ago)
Launch vehicle
FALCON 9
Launch site
Air Force Eastern Test Range (AFETR)
Object type
Payload
Rocket body
Debris
Shape & HBR
Box + 1 Pan, 10.1 m
Radar Cross Section
13.562 m², Large (>1 m²)

Expand to show TLE details & history
Last TLE update: 20 hours ago

TLE from 20 hours ago
0 STARLINK-2515
1 48323U 21036AZ  26035.73284196  .00000223  00000-0  33850-4 0  9998
2 48323  53.0519 249.5647 0001843  94.2207 265.8992 15.06402914263062
Epoch: 2026-02-04T17:35Z
TLE epoch observation values (Epoch: 2026-02-04T17:35:17.545Z)
Latitude
-0.00006°
Longitude
-149.15364°
Altitude
548.173 km
Speed
7.589 km/s
True Right ascension
16h 38m 15s
True Declination
0° 00' 00"
Sunlit
Object was in daylight at epoch
Visualization orbit readout
Latitude
Unknown
Longitude
Unknown
Altitude
Unknown
Speed
Unknown
Apparent Right ascension
Unknown
Apparent Declination
Unknown
Sunlit
N/A
Visualization observer readout
Local Sidereal Time
15:19:10
Azimuth
Unknown
Elevation
Unknown
Doppler factor
Unknown
Orbital elements
Apogee altitude
548.75 km
Perigee altitude
546.197 km
Semi-major axis
6,925.611 km
Eccentricity
0.00018
Inclination
53.0519°
RAAN
249.5647°
Arg. of periapsis
94.2207°
True anomaly
265.87814°
Mean anomaly
265.8992°
Eccentric anomaly
265.88867°
Mean motion
3.76579 °/min
Orbital period
95.6 mins
BSTAR
0.00003385
Loading maneuver chart data...
Computing Atmospheric mass density...
Loading historical data...
Loading historical data...
Loading historical data...
Loading historical data...
Loading historical data...
Loading historical data...
Loading historical data...

Documentation

Showing up to 5 results
|